STARLINK-34701 (64953 NORAD) Tracking and Keplerian Element Data

This shows tracking and keplerian element data for the satellite.

Feedback or suggestion? Click here.




ElementValue
Catalog64953
NameSTARLINK-34701
Epoch Orbit2340
Epoch Day354.23116134
Epoch Year2025
RAAN215.829
Inclination97.6026
Eccentricity0.0002102
Argument of Perigee83.948
Mean Anonmoly276.1986
Mean Motion15.05651515
Decay Rate2.702E-05
L11 64953U 25158X 25354.23116134 .00002702 00000+0 19141-3 0 9997
L22 64953 97.6026 215.8290 0002102 83.9480 276.1986 15.05651515 23405



Live tracking and technical data element details for STARLINK-34701 (NORAD 64953). STARLINK-34701 can be tracked NOW for your location showing map with azimuth and elevation plus other details from your city location.







IsCatalogInMostPopularTable: catalog: 64953, numindb: 3
Update: records affected: 1



GetName: 64953 STARLINK-34701

Hit Count: updated at: Tue, 10 Feb 2026 02:15:09 GMT